Time,TemperatureF,DewpointF,PressureIn,WindDirection,WindDirectionDegrees,WindSpeedMPH,WindSpeedGustMPH,Humidity,HourlyPrecipIn,Conditions,Clouds,dailyrainin,SoftwareType,DateUTC
2013-07-28 00:01:00,76.8,75.2,29.94,West,263,0.0,0.0,95,0.00,,,0.00,WUHU216DAVISVP2,2013-07-28 04:01:00,
2013-07-28 00:06:00,76.7,75.1,29.93,West,263,0.0,0.0,95,0.00,,,0.00,WUHU216DAVISVP2,2013-07-28 04:06:00,
2013-07-28 00:12:00,76.7,75.1,29.93,West,263,0.0,0.0,95,0.00,,,0.00,WUHU216DAVISVP2,2013-07-28 04:12:00,
2013-07-28 00:17:00,76.7,74.8,29.94,West,263,0.0,0.0,94,0.00,,,0.00,WUHU216DAVISVP2,2013-07-28 04:17:00,
2013-07-28 00:22:00,76.6,74.7,29.94,West,263,0.0,0.0,94,0.00,,,0.00,WUHU216DAVISVP2,2013-07-28 04:22:00,
2013-07-28 00:27:00,76.6,74.7,29.94,West,263,0.0,0.0,94,0.00,,,0.00,WUHU216DAVISVP2,2013-07-28 04:27:00,
2013-07-28 00:32:00,76.5,74.9,29.94,West,263,0.0,0.0,95,0.00,,,0.00,WUHU216DAVISVP2,2013-07-28 04:32:00,
2013-07-28 00:37:00,76.6,75.0,29.93,WSW,257,0.0,1.0,95,0.00,,,0.00,WUHU216DAVISVP2,2013-07-28 04:37:00,
2013-07-28 00:42:00,76.6,75.0,29.94,WSW,257,0.0,1.0,95,0.00,,,0.00,WUHU216DAVISVP2,2013-07-28 04:42:00,
2013-07-28 00:47:00,76.7,74.8,29.93,West,261,0.0,0.0,94,0.00,,,0.00,WUHU216DAVISVP2,2013-07-28 04:47:00,
2013-07-28 00:52:00,76.7,74.8,29.94,West,261,0.0,0.0,94,0.00,,,0.00,WUHU216DAVISVP2,2013-07-28 04:52:00,
2013-07-28 00:57:00,76.7,74.8,29.93,West,261,0.0,0.0,94,0.00,,,0.00,WUHU216DAVISVP2,2013-07-28 04:57:00,
2013-07-28 01:02:00,76.7,74.8,29.94,West,261,0.0,0.0,94,0.00,,,0.00,WUHU216DAVISVP2,2013-07-28 05:02:00,
2013-07-28 01:07:00,76.8,74.9,29.94,West,261,0.0,0.0,94,0.00,,,0.00,WUHU216DAVISVP2,2013-07-28 05:07:00,
2013-07-28 01:12:00,76.9,75.0,29.93,West,261,0.0,0.0,94,0.00,,,0.00,WUHU216DAVISVP2,2013-07-28 05:12:00,
2013-07-28 01:17:00,77.0,75.1,29.93,West,261,0.0,0.0,94,0.00,,,0.00,WUHU216DAVISVP2,2013-07-28 05:17:00,
2013-07-28 01:22:00,77.1,74.9,29.93,West,261,0.0,0.0,93,0.00,,,0.00,WUHU216DAVISVP2,2013-07-28 05:22:00,
2013-07-28 01:27:00,77.3,75.1,29.93,West,261,0.0,0.0,93,0.00,,,0.00,WUHU216DAVISVP2,2013-07-28 05:27:00,
2013-07-28 01:32:00,77.4,75.2,29.93,West,261,0.0,0.0,93,0.00,,,0.00,WUHU216DAVISVP2,2013-07-28 05:32:00,
2013-07-28 01:37:00,77.5,75.3,29.93,West,261,0.0,0.0,93,0.00,,,0.00,WUHU216DAVISVP2,2013-07-28 05:37:00,
2013-07-28 01:42:00,77.5,75.3,29.93,West,261,0.0,0.0,93,0.00,,,0.00,WUHU216DAVISVP2,2013-07-28 05:42:00,
2013-07-28 01:47:00,77.6,75.4,29.93,WSW,250,0.0,1.0,93,0.00,,,0.00,WUHU216DAVISVP2,2013-07-28 05:47:00,
2013-07-28 01:52:00,77.6,75.4,29.93,WSW,258,0.0,1.0,93,0.00,,,0.00,WUHU216DAVISVP2,2013-07-28 05:52:00,
2013-07-28 01:57:00,77.6,75.4,29.93,East,80,0.0,1.0,93,0.00,,,0.00,WUHU216DAVISVP2,2013-07-28 05:57:00,
2013-07-28 02:02:00,77.7,75.5,29.93,East,80,0.0,1.0,93,0.00,,,0.00,WUHU216DAVISVP2,2013-07-28 06:02:00,
2013-07-28 02:07:00,77.7,75.5,29.93,East,80,0.0,1.0,93,0.00,,,0.00,WUHU216DAVISVP2,2013-07-28 06:07:00,
2013-07-28 02:12:00,77.6,75.7,29.93,East,82,0.0,1.0,94,0.00,,,0.00,WUHU216DAVISVP2,2013-07-28 06:12:00,
2013-07-28 02:17:00,77.6,75.7,29.93,East,82,0.0,1.0,94,0.00,,,0.00,WUHU216DAVISVP2,2013-07-28 06:17:00,
2013-07-28 02:22:00,77.6,75.7,29.93,East,82,0.0,1.0,94,0.00,,,0.00,WUHU216DAVISVP2,2013-07-28 06:22:00,
2013-07-28 02:27:00,77.5,75.6,29.93,East,82,0.0,0.0,94,0.00,,,0.00,WUHU216DAVISVP2,2013-07-28 06:27:00,
2013-07-28 02:32:00,77.5,75.6,29.93,East,82,0.0,0.0,94,0.00,,,0.00,WUHU216DAVISVP2,2013-07-28 06:32:00,
2013-07-28 02:37:00,77.5,75.6,29.93,East,82,0.0,1.0,94,0.00,,,0.00,WUHU216DAVISVP2,2013-07-28 06:37:00,
2013-07-28 02:42:00,77.4,75.5,29.92,East,82,0.0,1.0,94,0.00,,,0.00,WUHU216DAVISVP2,2013-07-28 06:42:00,
2013-07-28 02:47:00,77.4,75.5,29.92,East,84,0.0,1.0,94,0.00,,,0.00,WUHU216DAVISVP2,2013-07-28 06:47:00,
2013-07-28 02:52:00,77.3,75.4,29.92,East,84,0.0,1.0,94,0.00,,,0.00,WUHU216DAVISVP2,2013-07-28 06:52:00,
2013-07-28 02:57:00,77.3,75.4,29.92,East,84,0.0,1.0,94,0.00,,,0.00,WUHU216DAVISVP2,2013-07-28 06:57:00,
2013-07-28 03:02:00,77.2,75.6,29.92,East,84,0.0,1.0,95,0.00,,,0.00,WUHU216DAVISVP2,2013-07-28 07:02:00,
2013-07-28 03:07:00,77.1,75.5,29.92,East,81,0.0,1.0,95,0.00,,,0.00,WUHU216DAVISVP2,2013-07-28 07:07:00,
2013-07-28 03:12:00,77.0,75.4,29.92,East,81,0.0,1.0,95,0.00,,,0.00,WUHU216DAVISVP2,2013-07-28 07:12:00,
2013-07-28 03:17:00,77.0,75.4,29.92,East,81,0.0,0.0,95,0.00,,,0.00,WUHU216DAVISVP2,2013-07-28 07:17:00,
2013-07-28 03:22:00,76.9,75.3,29.92,ENE,72,0.0,1.0,95,0.00,,,0.00,WUHU216DAVISVP2,2013-07-28 07:22:00,
2013-07-28 03:27:00,76.9,75.3,29.92,ENE,72,0.0,1.0,95,0.00,,,0.00,WUHU216DAVISVP2,2013-07-28 07:27:00,
2013-07-28 03:32:00,76.8,75.2,29.92,ENE,72,0.0,0.0,95,0.00,,,0.00,WUHU216DAVISVP2,2013-07-28 07:32:00,
2013-07-28 03:37:00,76.7,75.1,29.92,ENE,72,0.0,0.0,95,0.00,,,0.00,WUHU216DAVISVP2,2013-07-28 07:37:00,
2013-07-28 03:42:00,76.6,75.0,29.92,ENE,72,0.0,0.0,95,0.00,,,0.00,WUHU216DAVISVP2,2013-07-28 07:42:00,
2013-07-28 03:47:00,76.6,75.0,29.92,ENE,72,0.0,0.0,95,0.00,,,0.00,WUHU216DAVISVP2,2013-07-28 07:47:00,
2013-07-28 03:52:00,76.4,74.8,29.91,ENE,72,0.0,0.0,95,0.00,,,0.00,WUHU216DAVISVP2,2013-07-28 07:52:00,
2013-07-28 03:57:00,76.4,74.8,29.92,ENE,72,0.0,0.0,95,0.00,,,0.00,WUHU216DAVISVP2,2013-07-28 07:57:00,
2013-07-28 04:02:00,76.3,74.7,29.92,ENE,71,0.0,0.0,95,0.00,,,0.00,WUHU216DAVISVP2,2013-07-28 08:02:00,
2013-07-28 04:07:00,76.2,74.6,29.92,ENE,71,0.0,0.0,95,0.00,,,0.00,WUHU216DAVISVP2,2013-07-28 08:07:00,
2013-07-28 04:12:00,76.1,74.5,29.92,ENE,71,0.0,0.0,95,0.00,,,0.00,WUHU216DAVISVP2,2013-07-28 08:12:00,
2013-07-28 04:17:00,76.0,74.7,29.92,ENE,78,0.0,1.0,96,0.00,,,0.00,WUHU216DAVISVP2,2013-07-28 08:17:00,
2013-07-28 04:22:00,76.0,74.7,29.92,ENE,78,0.0,1.0,96,0.00,,,0.00,WUHU216DAVISVP2,2013-07-28 08:22:00,
2013-07-28 04:27:00,75.8,74.6,29.92,ENE,78,0.0,1.0,96,0.00,,,0.00,WUHU216DAVISVP2,2013-07-28 08:27:00,
2013-07-28 04:32:00,75.8,74.6,29.92,ENE,78,0.0,1.0,96,0.00,,,0.00,WUHU216DAVISVP2,2013-07-28 08:32:00,
2013-07-28 04:37:00,75.7,74.5,29.92,ENE,78,0.0,0.0,96,0.00,,,0.00,WUHU216DAVISVP2,2013-07-28 08:37:00,
2013-07-28 04:42:00,75.7,74.5,29.92,ENE,78,0.0,0.0,96,0.00,,,0.00,WUHU216DAVISVP2,2013-07-28 08:42:00,
2013-07-28 04:47:00,75.6,74.4,29.92,ENE,78,0.0,0.0,96,0.00,,,0.00,WUHU216DAVISVP2,2013-07-28 08:47:00,
2013-07-28 04:52:00,75.6,74.4,29.93,ENE,78,0.0,0.0,96,0.00,,,0.00,WUHU216DAVISVP2,2013-07-28 08:52:00,
2013-07-28 04:57:00,75.6,74.4,29.92,ENE,78,0.0,0.0,96,0.00,,,0.00,WUHU216DAVISVP2,2013-07-28 08:57:00,
2013-07-28 05:02:00,75.5,74.3,29.93,ENE,78,0.0,0.0,96,0.00,,,0.00,WUHU216DAVISVP2,2013-07-28 09:02:00,
2013-07-28 05:07:00,75.5,74.3,29.93,ENE,78,0.0,0.0,96,0.00,,,0.00,WUHU216DAVISVP2,2013-07-28 09:07:00,
2013-07-28 05:12:00,75.4,74.2,29.93,ENE,78,0.0,0.0,96,0.00,,,0.00,WUHU216DAVISVP2,2013-07-28 09:12:00,
2013-07-28 05:17:00,75.4,74.2,29.93,ENE,78,0.0,0.0,96,0.00,,,0.00,WUHU216DAVISVP2,2013-07-28 09:17:00,
2013-07-28 05:22:00,75.3,74.1,29.93,ENE,78,0.0,0.0,96,0.00,,,0.00,WUHU216DAVISVP2,2013-07-28 09:22:00,
2013-07-28 05:27:00,75.3,74.4,29.93,ENE,78,0.0,0.0,97,0.00,,,0.00,WUHU216DAVISVP2,2013-07-28 09:27:00,
2013-07-28 05:32:00,75.3,74.4,29.93,ENE,78,0.0,0.0,97,0.00,,,0.00,WUHU216DAVISVP2,2013-07-28 09:32:00,
2013-07-28 05:37:00,75.3,74.4,29.94,ENE,78,0.0,0.0,97,0.00,,,0.00,WUHU216DAVISVP2,2013-07-28 09:37:00,
2013-07-28 05:42:00,75.2,74.3,29.94,ENE,78,0.0,0.0,97,0.00,,,0.00,WUHU216DAVISVP2,2013-07-28 09:42:00,
2013-07-28 05:47:00,75.2,74.3,29.94,ENE,78,0.0,0.0,97,0.00,,,0.00,WUHU216DAVISVP2,2013-07-28 09:47:00,
2013-07-28 05:52:00,75.2,74.3,29.94,ENE,78,0.0,0.0,97,0.00,,,0.00,WUHU216DAVISVP2,2013-07-28 09:52:00,
2013-07-28 05:57:00,75.2,74.3,29.94,ENE,78,0.0,0.0,97,0.00,,,0.00,WUHU216DAVISVP2,2013-07-28 09:57:00,
2013-07-28 06:02:00,75.2,74.3,29.94,ENE,78,0.0,0.0,97,0.00,,,0.00,WUHU216DAVISVP2,2013-07-28 10:02:00,
2013-07-28 06:07:00,75.2,74.3,29.94,ENE,78,0.0,0.0,97,0.00,,,0.00,WUHU216DAVISVP2,2013-07-28 10:07:00,
2013-07-28 06:12:00,75.2,74.3,29.95,ENE,78,0.0,0.0,97,0.00,,,0.00,WUHU216DAVISVP2,2013-07-28 10:12:00,
2013-07-28 06:17:00,75.2,74.3,29.95,ENE,78,0.0,0.0,97,0.00,,,0.00,WUHU216DAVISVP2,2013-07-28 10:17:00,
2013-07-28 06:22:00,75.1,74.2,29.95,ENE,78,0.0,0.0,97,0.00,,,0.00,WUHU216DAVISVP2,2013-07-28 10:22:00,
2013-07-28 06:27:00,75.1,74.2,29.95,ENE,78,0.0,0.0,97,0.00,,,0.00,WUHU216DAVISVP2,2013-07-28 10:27:00,
2013-07-28 06:32:00,75.1,74.2,29.95,ENE,78,0.0,0.0,97,0.00,,,0.00,WUHU216DAVISVP2,2013-07-28 10:32:00,
2013-07-28 06:37:00,75.2,74.3,29.95,ENE,78,0.0,0.0,97,0.00,,,0.00,WUHU216DAVISVP2,2013-07-28 10:37:00,
2013-07-28 06:42:00,75.2,74.3,29.95,ENE,78,0.0,0.0,97,0.00,,,0.00,WUHU216DAVISVP2,2013-07-28 10:42:00,
2013-07-28 06:47:00,75.2,74.3,29.95,ENE,78,0.0,0.0,97,0.00,,,0.00,WUHU216DAVISVP2,2013-07-28 10:47:00,
2013-07-28 06:52:00,75.3,74.4,29.95,ENE,78,0.0,0.0,97,0.00,,,0.00,WUHU216DAVISVP2,2013-07-28 10:52:00,
2013-07-28 06:57:00,75.3,74.4,29.95,ENE,78,0.0,0.0,97,0.00,,,0.00,WUHU216DAVISVP2,2013-07-28 10:57:00,
2013-07-28 07:02:00,75.2,74.3,29.96,ENE,78,0.0,0.0,97,0.00,,,0.00,WUHU216DAVISVP2,2013-07-28 11:02:00,
2013-07-28 07:07:00,75.2,74.3,29.96,ENE,78,0.0,0.0,97,0.00,,,0.00,WUHU216DAVISVP2,2013-07-28 11:07:00,
2013-07-28 07:12:00,75.2,74.6,29.96,ENE,78,0.0,0.0,98,0.00,,,0.00,WUHU216DAVISVP2,2013-07-28 11:12:00,
2013-07-28 07:17:00,75.2,74.6,29.96,ENE,78,0.0,0.0,98,0.00,,,0.00,WUHU216DAVISVP2,2013-07-28 11:17:00,
2013-07-28 07:22:00,75.2,74.6,29.96,ENE,78,0.0,0.0,98,0.00,,,0.00,WUHU216DAVISVP2,2013-07-28 11:22:00,
2013-07-28 07:27:00,75.2,74.6,29.96,ENE,78,0.0,0.0,98,0.00,,,0.00,WUHU216DAVISVP2,2013-07-28 11:27:00,
2013-07-28 07:32:00,75.2,74.6,29.96,ENE,78,0.0,0.0,98,0.00,,,0.00,WUHU216DAVISVP2,2013-07-28 11:32:00,
2013-07-28 07:37:00,75.4,74.8,29.96,ENE,78,0.0,0.0,98,0.00,,,0.00,WUHU216DAVISVP2,2013-07-28 11:37:00,
2013-07-28 07:42:00,75.4,74.8,29.96,ENE,78,0.0,0.0,98,0.00,,,0.00,WUHU216DAVISVP2,2013-07-28 11:42:00,
2013-07-28 07:47:00,75.5,74.9,29.96,ENE,78,0.0,0.0,98,0.00,,,0.00,WUHU216DAVISVP2,2013-07-28 11:47:00,
2013-07-28 07:52:00,75.6,75.0,29.96,ENE,78,0.0,0.0,98,0.00,,,0.00,WUHU216DAVISVP2,2013-07-28 11:52:00,
2013-07-28 07:57:00,75.7,75.1,29.96,ENE,78,0.0,0.0,98,0.00,,,0.00,WUHU216DAVISVP2,2013-07-28 11:57:00,
2013-07-28 08:02:00,75.7,75.1,29.96,ENE,78,0.0,0.0,98,0.00,,,0.00,WUHU216DAVISVP2,2013-07-28 12:02:00,
2013-07-28 08:07:00,75.8,75.2,29.96,ENE,78,0.0,0.0,98,0.00,,,0.00,WUHU216DAVISVP2,2013-07-28 12:07:00,
2013-07-28 08:12:00,75.9,75.3,29.97,ENE,78,0.0,0.0,98,0.00,,,0.00,WUHU216DAVISVP2,2013-07-28 12:12:00,
2013-07-28 08:17:00,76.1,75.5,29.97,ENE,78,0.0,0.0,98,0.00,,,0.00,WUHU216DAVISVP2,2013-07-28 12:17:00,
2013-07-28 08:22:00,76.3,75.7,29.97,ENE,78,0.0,0.0,98,0.00,,,0.00,WUHU216DAVISVP2,2013-07-28 12:22:00,
2013-07-28 08:27:00,76.5,76.2,29.97,ENE,78,0.0,0.0,99,0.00,,,0.00,WUHU216DAVISVP2,2013-07-28 12:27:00,
2013-07-28 08:32:00,76.7,76.1,29.97,ENE,78,0.0,0.0,98,0.00,,,0.00,WUHU216DAVISVP2,2013-07-28 12:32:00,
2013-07-28 08:37:00,77.0,76.4,29.97,East,80,0.0,1.0,98,0.00,,,0.00,WUHU216DAVISVP2,2013-07-28 12:37:00,
2013-07-28 08:42:00,77.3,76.7,29.97,SSW,194,0.0,2.0,98,0.00,,,0.00,WUHU216DAVISVP2,2013-07-28 12:42:00,
2013-07-28 08:48:00,77.5,76.9,29.98,SE,144,0.0,2.0,98,0.00,,,0.00,WUHU216DAVISVP2,2013-07-28 12:48:00,
2013-07-28 08:53:00,77.7,77.1,29.98,SE,144,0.0,1.0,98,0.00,,,0.00,WUHU216DAVISVP2,2013-07-28 12:53:00,
2013-07-28 08:58:00,78.0,77.1,29.98,SE,144,0.0,1.0,97,0.00,,,0.00,WUHU216DAVISVP2,2013-07-28 12:58:00,
2013-07-28 09:03:00,78.2,77.3,29.98,SE,144,0.0,1.0,97,0.00,,,0.00,WUHU216DAVISVP2,2013-07-28 13:03:00,
2013-07-28 09:08:00,78.3,77.4,29.98,SE,144,0.0,0.0,97,0.00,,,0.00,WUHU216DAVISVP2,2013-07-28 13:08:00,
2013-07-28 09:13:00,78.5,77.6,29.98,SE,144,0.0,0.0,97,0.00,,,0.00,WUHU216DAVISVP2,2013-07-28 13:13:00,
2013-07-28 09:18:00,78.7,77.8,29.98,SE,144,0.0,0.0,97,0.00,,,0.00,WUHU216DAVISVP2,2013-07-28 13:18:00,
2013-07-28 09:23:00,78.9,77.6,29.98,SSE,153,0.0,2.0,96,0.00,,,0.00,WUHU216DAVISVP2,2013-07-28 13:23:00,
2013-07-28 09:28:00,79.1,77.8,29.97,SSE,153,0.0,2.0,96,0.00,,,0.00,WUHU216DAVISVP2,2013-07-28 13:28:00,
2013-07-28 09:33:00,79.2,77.9,29.98,SSE,153,0.0,1.0,96,0.00,,,0.00,WUHU216DAVISVP2,2013-07-28 13:33:00,
2013-07-28 09:38:00,79.4,77.8,29.98,SSW,209,0.0,3.0,95,0.00,,,0.00,WUHU216DAVISVP2,2013-07-28 13:38:00,
2013-07-28 09:43:00,79.6,78.0,29.98,SSW,209,0.0,3.0,95,0.00,,,0.00,WUHU216DAVISVP2,2013-07-28 13:43:00,
2013-07-28 09:48:00,80.0,78.4,29.98,SSW,209,0.0,4.0,95,0.00,,,0.00,WUHU216DAVISVP2,2013-07-28 13:48:00,
2013-07-28 09:53:00,80.2,78.3,29.98,SSW,209,0.0,4.0,94,0.00,,,0.00,WUHU216DAVISVP2,2013-07-28 13:53:00,
2013-07-28 09:58:00,80.3,78.1,29.98,WSW,238,0.0,3.0,93,0.00,,,0.00,WUHU216DAVISVP2,2013-07-28 13:58:00,
2013-07-28 10:03:00,80.6,78.0,29.98,SW,219,0.0,3.0,92,0.00,,,0.00,WUHU216DAVISVP2,2013-07-28 14:03:00,
2013-07-28 10:08:00,80.8,78.2,29.98,SW,222,0.0,3.0,92,0.00,,,0.00,WUHU216DAVISVP2,2013-07-28 14:08:00,
2013-07-28 10:13:00,80.8,78.2,29.98,SW,222,1.0,2.0,92,0.00,,,0.00,WUHU216DAVISVP2,2013-07-28 14:13:00,
2013-07-28 10:18:00,81.0,78.4,29.98,WSW,252,0.0,4.0,92,0.00,,,0.00,WUHU216DAVISVP2,2013-07-28 14:18:00,
2013-07-28 10:23:00,81.0,78.1,29.99,NW,316,0.0,4.0,91,0.00,,,0.00,WUHU216DAVISVP2,2013-07-28 14:23:00,
2013-07-28 10:28:00,81.0,78.1,29.98,SW,221,0.0,3.0,91,0.00,,,0.00,WUHU216DAVISVP2,2013-07-28 14:28:00,
2013-07-28 10:33:00,81.1,78.2,29.99,SW,221,0.0,3.0,91,0.00,,,0.00,WUHU216DAVISVP2,2013-07-28 14:33:00,
2013-07-28 10:38:00,81.2,78.0,29.99,SW,221,0.0,1.0,90,0.00,,,0.00,WUHU216DAVISVP2,2013-07-28 14:38:00,
2013-07-28 10:43:00,81.2,78.0,29.99,SSW,211,0.0,3.0,90,0.00,,,0.00,WUHU216DAVISVP2,2013-07-28 14:43:00,
2013-07-28 10:48:00,81.4,78.2,29.99,SSW,211,0.0,3.0,90,0.00,,,0.00,WUHU216DAVISVP2,2013-07-28 14:48:00,
2013-07-28 10:53:00,81.5,78.3,29.99,SSW,211,0.0,0.0,90,0.00,,,0.00,WUHU216DAVISVP2,2013-07-28 14:53:00,
2013-07-28 10:58:00,81.7,78.1,29.99,SSW,211,0.0,1.0,89,0.00,,,0.00,WUHU216DAVISVP2,2013-07-28 14:58:00,
2013-07-28 11:03:00,81.8,78.2,29.99,SSW,211,0.0,1.0,89,0.00,,,0.00,WUHU216DAVISVP2,2013-07-28 15:03:00,
2013-07-28 11:08:00,81.9,78.0,29.99,SW,234,0.0,3.0,88,0.00,,,0.00,WUHU216DAVISVP2,2013-07-28 15:08:00,
2013-07-28 11:13:00,82.0,78.1,29.99,SSE,148,0.0,4.0,88,0.00,,,0.00,WUHU216DAVISVP2,2013-07-28 15:13:00,
2013-07-28 11:18:00,82.2,78.3,29.99,WSW,246,3.0,5.0,88,0.00,,,0.00,WUHU216DAVISVP2,2013-07-28 15:18:00,
2013-07-28 11:23:00,82.3,78.4,29.99,SSW,209,0.0,5.0,88,0.00,,,0.00,WUHU216DAVISVP2,2013-07-28 15:23:00,
2013-07-28 11:28:00,82.3,78.1,29.99,WSW,252,0.0,5.0,87,0.00,,,0.00,WUHU216DAVISVP2,2013-07-28 15:28:00,
2013-07-28 11:33:00,82.6,78.4,29.99,WSW,252,0.0,4.0,87,0.00,,,0.00,WUHU216DAVISVP2,2013-07-28 15:33:00,
2013-07-28 11:38:00,82.9,78.3,29.99,WSW,246,0.0,4.0,86,0.00,,,0.00,WUHU216DAVISVP2,2013-07-28 15:38:00,
2013-07-28 11:43:00,83.3,78.4,30.00,West,259,0.0,4.0,85,0.00,,,0.00,WUHU216DAVISVP2,2013-07-28 15:43:00,
2013-07-28 11:48:00,83.6,78.7,30.00,West,259,0.0,4.0,85,0.00,,,0.00,WUHU216DAVISVP2,2013-07-28 15:48:00,
2013-07-28 11:53:00,83.6,78.7,30.00,WSW,250,0.0,4.0,85,0.00,,,0.00,WUHU216DAVISVP2,2013-07-28 15:53:00,
2013-07-28 11:58:00,83.8,78.5,30.00,South,176,0.0,4.0,84,0.00,,,0.00,WUHU216DAVISVP2,2013-07-28 15:58:00,
2013-07-28 12:03:00,84.2,78.9,30.00,South,188,0.0,1.0,84,0.00,,,0.00,WUHU216DAVISVP2,2013-07-28 16:03:00,
2013-07-28 12:08:00,84.5,78.9,30.00,South,188,0.0,1.0,83,0.00,,,0.00,WUHU216DAVISVP2,2013-07-28 16:08:00,
2013-07-28 12:13:00,84.5,78.9,30.00,WSW,249,5.0,6.0,83,0.00,,,0.00,WUHU216DAVISVP2,2013-07-28 16:13:00,
2013-07-28 12:18:00,84.0,78.7,30.00,WSW,242,0.0,6.0,84,0.00,,,0.00,WUHU216DAVISVP2,2013-07-28 16:18:00,
2013-07-28 12:23:00,83.8,78.5,30.00,WSW,244,0.0,6.0,84,0.00,,,0.00,WUHU216DAVISVP2,2013-07-28 16:23:00,
2013-07-28 12:28:00,83.6,78.3,30.00,WSW,244,0.0,4.0,84,0.00,,,0.00,WUHU216DAVISVP2,2013-07-28 16:28:00,
2013-07-28 12:33:00,83.7,78.8,30.00,WSW,244,0.0,2.0,85,0.00,,,0.00,WUHU216DAVISVP2,2013-07-28 16:33:00,
2013-07-28 12:38:00,83.8,78.9,30.00,West,265,0.0,2.0,85,0.00,,,0.00,WUHU216DAVISVP2,2013-07-28 16:38:00,
2013-07-28 12:43:00,83.5,77.9,30.00,SW,222,0.0,4.0,83,0.00,,,0.00,WUHU216DAVISVP2,2013-07-28 16:43:00,
2013-07-28 12:48:00,83.5,78.2,30.00,SW,222,0.0,4.0,84,0.00,,,0.00,WUHU216DAVISVP2,2013-07-28 16:48:00,
2013-07-28 12:53:00,83.5,77.9,30.00,WSW,248,3.0,4.0,83,0.00,,,0.00,WUHU216DAVISVP2,2013-07-28 16:53:00,
2013-07-28 12:58:00,83.6,78.0,30.00,WSW,249,0.0,4.0,83,0.00,,,0.00,WUHU216DAVISVP2,2013-07-28 16:58:00,
2013-07-28 13:03:00,83.9,77.9,30.00,SSW,210,0.0,4.0,82,0.00,,,0.00,WUHU216DAVISVP2,2013-07-28 17:03:00,
2013-07-28 13:08:00,84.6,78.2,30.00,SW,225,0.0,1.0,81,0.00,,,0.00,WUHU216DAVISVP2,2013-07-28 17:08:00,
2013-07-28 13:13:00,85.5,78.8,30.00,SSW,213,0.0,2.0,80,0.00,,,0.00,WUHU216DAVISVP2,2013-07-28 17:13:00,
2013-07-28 13:18:00,86.1,78.2,30.00,WSW,237,0.0,2.0,77,0.00,,,0.00,WUHU216DAVISVP2,2013-07-28 17:18:00,
2013-07-28 13:23:00,86.6,78.7,30.00,WSW,237,0.0,1.0,77,0.00,,,0.00,WUHU216DAVISVP2,2013-07-28 17:23:00,
2013-07-28 13:28:00,87.0,78.7,30.00,West,261,0.0,1.0,76,0.00,,,0.00,WUHU216DAVISVP2,2013-07-28 17:28:00,
2013-07-28 13:33:00,87.6,78.9,29.99,West,261,0.0,1.0,75,0.00,,,0.00,WUHU216DAVISVP2,2013-07-28 17:33:00,
2013-07-28 13:38:00,88.4,79.7,30.00,SE,141,0.0,1.0,75,0.00,,,0.00,WUHU216DAVISVP2,2013-07-28 17:38:00,
2013-07-28 13:43:00,89.3,79.7,29.99,SSW,203,0.0,1.0,73,0.00,,,0.00,WUHU216DAVISVP2,2013-07-28 17:43:00,
2013-07-28 13:48:00,89.2,79.2,29.99,SSW,192,0.0,1.0,72,0.00,,,0.00,WUHU216DAVISVP2,2013-07-28 17:48:00,
2013-07-28 13:53:00,88.6,79.5,29.99,WSW,256,0.0,1.0,74,0.00,,,0.00,WUHU216DAVISVP2,2013-07-28 17:53:00,
2013-07-28 13:58:00,87.5,78.4,29.99,SSE,152,0.0,1.0,74,0.00,,,0.00,WUHU216DAVISVP2,2013-07-28 17:58:00,
2013-07-28 14:03:00,86.8,77.7,29.99,ESE,104,0.0,1.0,74,0.00,,,0.00,WUHU216DAVISVP2,2013-07-28 18:03:00,
2013-07-28 14:08:00,86.6,78.3,29.99,East,79,0.0,1.0,76,0.00,,,0.00,WUHU216DAVISVP2,2013-07-28 18:08:00,
2013-07-28 14:13:00,86.6,77.9,29.99,ENE,61,0.0,1.0,75,0.00,,,0.00,WUHU216DAVISVP2,2013-07-28 18:13:00,
2013-07-28 14:18:00,86.9,77.8,29.99,ENE,63,0.0,1.0,74,0.00,,,0.00,WUHU216DAVISVP2,2013-07-28 18:18:00,
2013-07-28 14:23:00,87.4,79.5,29.99,NE,55,0.0,1.0,77,0.00,,,0.00,WUHU216DAVISVP2,2013-07-28 18:23:00,
2013-07-28 14:28:00,87.9,79.2,29.99,WNW,285,0.0,1.0,75,0.00,,,0.00,WUHU216DAVISVP2,2013-07-28 18:28:00,
2013-07-28 14:33:00,88.3,79.2,29.99,NNW,329,0.0,1.0,74,0.00,,,0.00,WUHU216DAVISVP2,2013-07-28 18:33:00,
2013-07-28 14:38:00,88.2,79.1,29.99,NNE,32,0.0,1.0,74,0.00,,,0.00,WUHU216DAVISVP2,2013-07-28 18:38:00,
2013-07-28 14:43:00,88.1,79.8,29.99,NNE,31,0.0,1.0,76,0.00,,,0.00,WUHU216DAVISVP2,2013-07-28 18:43:00,
2013-07-28 14:48:00,87.4,79.1,29.99,NNE,32,0.0,1.0,76,0.00,,,0.00,WUHU216DAVISVP2,2013-07-28 18:48:00,
2013-07-28 14:53:00,87.3,80.1,29.99,NNE,19,0.0,1.0,79,0.00,,,0.00,WUHU216DAVISVP2,2013-07-28 18:53:00,
2013-07-28 14:58:00,87.7,80.5,29.99,NNE,21,0.0,1.0,79,0.00,,,0.00,WUHU216DAVISVP2,2013-07-28 18:58:00,
2013-07-28 15:03:00,87.9,79.6,29.98,WNW,287,0.0,2.0,76,0.00,,,0.00,WUHU216DAVISVP2,2013-07-28 19:03:00,
2013-07-28 15:08:00,87.9,80.4,29.98,North,349,0.0,2.0,78,0.00,,,0.00,WUHU216DAVISVP2,2013-07-28 19:08:00,
2013-07-28 15:13:00,87.8,79.5,29.98,North,349,0.0,1.0,76,0.00,,,0.00,WUHU216DAVISVP2,2013-07-28 19:13:00,
2013-07-28 15:18:00,87.8,80.3,29.98,WSW,257,0.0,1.0,78,0.00,,,0.00,WUHU216DAVISVP2,2013-07-28 19:18:00,
2013-07-28 15:23:00,88.0,80.1,29.98,SE,136,0.0,1.0,77,0.00,,,0.00,WUHU216DAVISVP2,2013-07-28 19:23:00,
2013-07-28 15:28:00,87.4,79.5,29.98,SE,133,0.0,1.0,77,0.00,,,0.00,WUHU216DAVISVP2,2013-07-28 19:28:00,
2013-07-28 15:33:00,87.0,79.9,29.97,SE,130,0.0,1.0,79,0.00,,,0.00,WUHU216DAVISVP2,2013-07-28 19:33:00,
2013-07-28 15:38:00,86.5,79.7,29.97,SE,135,0.0,1.0,80,0.00,,,0.00,WUHU216DAVISVP2,2013-07-28 19:38:00,
2013-07-28 15:43:00,85.9,79.9,29.97,NNW,344,0.0,1.0,82,0.00,,,0.00,WUHU216DAVISVP2,2013-07-28 19:43:00,
2013-07-28 15:48:00,85.4,80.1,29.97,East,90,0.0,1.0,84,0.00,,,0.00,WUHU216DAVISVP2,2013-07-28 19:48:00,
2013-07-28 15:53:00,85.0,80.4,29.97,WSW,242,0.0,2.0,86,0.00,,,0.00,WUHU216DAVISVP2,2013-07-28 19:53:00,
2013-07-28 15:58:00,84.6,80.0,29.97,SSW,202,0.0,2.0,86,0.00,,,0.00,WUHU216DAVISVP2,2013-07-28 19:58:00,
2013-07-28 16:03:00,83.9,79.6,29.98,East,79,0.0,2.0,87,0.00,,,0.00,WUHU216DAVISVP2,2013-07-28 20:03:00,
2013-07-28 16:08:00,83.6,79.7,29.98,ENE,75,0.0,2.0,88,0.00,,,0.00,WUHU216DAVISVP2,2013-07-28 20:08:00,
2013-07-28 16:13:00,83.4,79.5,29.98,NNE,32,0.0,2.0,88,0.00,,,0.00,WUHU216DAVISVP2,2013-07-28 20:13:00,
2013-07-28 16:18:00,83.3,79.4,29.98,SSE,148,0.0,2.0,88,0.00,,,0.00,WUHU216DAVISVP2,2013-07-28 20:18:00,
2013-07-28 16:23:00,83.1,79.2,29.98,ESE,109,0.0,2.0,88,0.00,,,0.00,WUHU216DAVISVP2,2013-07-28 20:23:00,
2013-07-28 16:28:00,83.0,79.4,29.98,NE,35,0.0,2.0,89,0.00,,,0.00,WUHU216DAVISVP2,2013-07-28 20:28:00,
2013-07-28 16:33:00,82.8,79.2,29.98,East,80,0.0,3.0,89,0.00,,,0.00,WUHU216DAVISVP2,2013-07-28 20:33:00,
2013-07-28 16:38:00,82.7,79.1,29.98,ENE,78,0.0,3.0,89,0.00,,,0.00,WUHU216DAVISVP2,2013-07-28 20:38:00,
2013-07-28 16:43:00,82.6,79.4,29.98,ENE,78,0.0,1.0,90,0.00,,,0.00,WUHU216DAVISVP2,2013-07-28 20:43:00,
2013-07-28 16:48:00,82.4,78.8,29.98,ENE,62,0.0,4.0,89,0.00,,,0.00,WUHU216DAVISVP2,2013-07-28 20:48:00,
2013-07-28 16:53:00,82.3,78.7,29.99,ENE,62,0.0,4.0,89,0.00,,,0.00,WUHU216DAVISVP2,2013-07-28 20:53:00,
2013-07-28 16:58:00,82.2,78.6,29.99,East,87,0.0,2.0,89,0.00,,,0.00,WUHU216DAVISVP2,2013-07-28 20:58:00,
2013-07-28 17:03:00,82.1,78.5,29.99,ENE,63,2.0,4.0,89,0.00,,,0.00,WUHU216DAVISVP2,2013-07-28 21:03:00,
2013-07-28 17:08:00,81.9,78.7,29.99,East,98,0.0,4.0,90,0.00,,,0.00,WUHU216DAVISVP2,2013-07-28 21:08:00,
2013-07-28 17:13:00,81.8,78.6,29.99,ESE,105,0.0,2.0,90,0.00,,,0.00,WUHU216DAVISVP2,2013-07-28 21:13:00,
2013-07-28 17:18:00,81.8,78.9,29.99,East,92,0.0,1.0,91,0.00,,,0.00,WUHU216DAVISVP2,2013-07-28 21:18:00,
2013-07-28 17:23:00,81.6,78.4,29.99,East,92,0.0,1.0,90,0.00,,,0.00,WUHU216DAVISVP2,2013-07-28 21:23:00,
2013-07-28 17:28:00,81.5,78.3,30.00,NE,43,0.0,1.0,90,0.00,,,0.00,WUHU216DAVISVP2,2013-07-28 21:28:00,
2013-07-28 17:33:00,81.5,78.6,30.00,NE,50,0.0,1.0,91,0.00,,,0.00,WUHU216DAVISVP2,2013-07-28 21:33:00,
2013-07-28 17:38:00,81.4,78.8,30.00,NE,51,1.0,1.0,92,0.00,,,0.00,WUHU216DAVISVP2,2013-07-28 21:38:00,
2013-07-28 17:43:00,80.3,76.1,30.02,WSW,249,0.0,10.0,87,0.00,,,0.00,WUHU216DAVISVP2,2013-07-28 21:43:00,
2013-07-28 17:48:00,78.9,75.4,30.02,SW,232,3.0,10.0,89,0.01,,,0.01,WUHU216DAVISVP2,2013-07-28 21:48:00,
2013-07-28 17:53:00,78.1,74.9,30.02,South,188,0.0,4.0,90,0.01,,,0.01,WUHU216DAVISVP2,2013-07-28 21:53:00,
2013-07-28 17:58:00,77.3,74.5,30.01,SE,128,1.0,4.0,91,0.04,,,0.04,WUHU216DAVISVP2,2013-07-28 21:58:00,
2013-07-28 18:03:00,75.9,72.1,30.01,SW,224,1.0,5.0,88,0.12,,,0.13,WUHU216DAVISVP2,2013-07-28 22:03:00,
2013-07-28 18:08:00,74.8,71.7,30.00,WSW,238,0.0,5.0,90,0.23,,,0.23,WUHU216DAVISVP2,2013-07-28 22:08:00,
2013-07-28 18:13:00,74.2,71.7,30.00,WSW,238,0.0,2.0,92,0.30,,,0.30,WUHU216DAVISVP2,2013-07-28 22:13:00,
2013-07-28 18:18:00,73.9,71.7,30.00,WSW,238,0.0,0.0,93,0.33,,,0.33,WUHU216DAVISVP2,2013-07-28 22:18:00,
2013-07-28 18:23:00,73.9,72.0,30.00,WSW,238,0.0,0.0,94,0.34,,,0.34,WUHU216DAVISVP2,2013-07-28 22:23:00,
2013-07-28 18:28:00,74.1,72.5,30.00,WSW,238,0.0,0.0,95,0.34,,,0.34,WUHU216DAVISVP2,2013-07-28 22:28:00,
2013-07-28 18:33:00,74.3,73.1,29.99,WSW,238,0.0,0.0,96,0.34,,,0.34,WUHU216DAVISVP2,2013-07-28 22:33:00,
2013-07-28 18:38:00,74.4,73.2,29.99,WSW,237,0.0,1.0,96,0.34,,,0.34,WUHU216DAVISVP2,2013-07-28 22:38:00,
2013-07-28 18:43:00,74.5,73.3,29.99,WSW,237,0.0,1.0,96,0.34,,,0.34,WUHU216DAVISVP2,2013-07-28 22:43:00,
2013-07-28 18:48:00,74.7,73.8,29.99,WSW,237,0.0,0.0,97,0.33,,,0.34,WUHU216DAVISVP2,2013-07-28 22:48:00,
2013-07-28 18:53:00,75.0,74.1,29.99,WSW,237,0.0,0.0,97,0.33,,,0.34,WUHU216DAVISVP2,2013-07-28 22:53:00,
2013-07-28 18:58:00,75.2,74.3,29.99,WSW,237,0.0,0.0,97,0.30,,,0.34,WUHU216DAVISVP2,2013-07-28 22:58:00,
2013-07-28 19:03:00,75.4,74.5,30.00,WSW,237,0.0,0.0,97,0.21,,,0.34,WUHU216DAVISVP2,2013-07-28 23:03:00,
2013-07-28 19:08:00,75.5,74.6,30.00,WSW,237,0.0,0.0,97,0.11,,,0.34,WUHU216DAVISVP2,2013-07-28 23:08:00,
2013-07-28 19:13:00,75.8,74.9,30.00,WSW,237,0.0,0.0,97,0.04,,,0.34,WUHU216DAVISVP2,2013-07-28 23:13:00,
2013-07-28 19:18:00,76.1,75.5,30.00,WSW,237,0.0,1.0,98,0.01,,,0.34,WUHU216DAVISVP2,2013-07-28 23:18:00,
2013-07-28 19:23:00,76.3,75.4,30.00,WSW,237,0.0,1.0,97,0.00,,,0.34,WUHU216DAVISVP2,2013-07-28 23:23:00,
2013-07-28 19:28:00,76.3,75.4,30.00,WSW,237,0.0,0.0,97,0.00,,,0.34,WUHU216DAVISVP2,2013-07-28 23:28:00,
2013-07-28 19:33:00,76.3,75.4,30.00,WSW,237,0.0,1.0,97,0.00,,,0.34,WUHU216DAVISVP2,2013-07-28 23:33:00,
2013-07-28 19:38:00,76.2,75.3,30.00,WSW,237,0.0,1.0,97,0.00,,,0.34,WUHU216DAVISVP2,2013-07-28 23:38:00,
2013-07-28 19:43:00,76.2,75.3,30.01,WSW,237,0.0,0.0,97,0.00,,,0.34,WUHU216DAVISVP2,2013-07-28 23:43:00,
2013-07-28 19:48:00,76.2,75.3,30.01,WSW,237,0.0,0.0,97,0.00,,,0.34,WUHU216DAVISVP2,2013-07-28 23:48:00,
2013-07-28 19:53:00,76.2,75.3,30.00,WSW,237,0.0,0.0,97,0.00,,,0.34,WUHU216DAVISVP2,2013-07-28 23:53:00,
2013-07-28 19:58:00,76.3,75.4,30.00,WSW,237,0.0,0.0,97,0.00,,,0.34,WUHU216DAVISVP2,2013-07-28 23:58:00,
2013-07-28 20:03:00,76.3,75.4,30.01,WSW,237,0.0,0.0,97,0.00,,,0.34,WUHU216DAVISVP2,2013-07-29 00:03:00,
2013-07-28 20:08:00,76.3,75.4,30.01,WSW,237,0.0,0.0,97,0.00,,,0.34,WUHU216DAVISVP2,2013-07-29 00:08:00,
2013-07-28 20:13:00,76.4,75.5,30.01,WSW,237,0.0,0.0,97,0.00,,,0.34,WUHU216DAVISVP2,2013-07-29 00:13:00,
2013-07-28 20:18:00,76.3,75.4,30.01,WSW,237,0.0,1.0,97,0.00,,,0.34,WUHU216DAVISVP2,2013-07-29 00:18:00,
2013-07-28 20:23:00,76.2,75.3,30.01,WSW,237,0.0,1.0,97,0.00,,,0.34,WUHU216DAVISVP2,2013-07-29 00:23:00,
2013-07-28 20:28:00,76.1,75.2,30.01,WSW,237,0.0,0.0,97,0.00,,,0.34,WUHU216DAVISVP2,2013-07-29 00:28:00,
2013-07-28 20:33:00,76.1,75.2,30.01,WSW,237,0.0,0.0,97,0.00,,,0.34,WUHU216DAVISVP2,2013-07-29 00:33:00,
2013-07-28 20:38:00,76.0,75.1,30.01,WSW,237,0.0,0.0,97,0.00,,,0.34,WUHU216DAVISVP2,2013-07-29 00:38:00,
2013-07-28 20:43:00,76.0,75.1,30.02,WSW,237,0.0,0.0,97,0.00,,,0.34,WUHU216DAVISVP2,2013-07-29 00:43:00,
2013-07-28 20:48:00,75.9,75.0,30.02,WSW,237,0.0,0.0,97,0.00,,,0.34,WUHU216DAVISVP2,2013-07-29 00:48:00,
2013-07-28 20:53:00,75.8,74.9,30.02,WSW,237,0.0,0.0,97,0.00,,,0.34,WUHU216DAVISVP2,2013-07-29 00:53:00,
2013-07-28 20:58:00,75.7,74.8,30.02,WSW,237,0.0,0.0,97,0.00,,,0.34,WUHU216DAVISVP2,2013-07-29 00:58:00,
2013-07-28 21:03:00,75.6,74.7,30.02,WSW,237,0.0,0.0,97,0.00,,,0.34,WUHU216DAVISVP2,2013-07-29 01:03:00,
2013-07-28 21:08:00,75.6,74.7,30.02,WSW,240,0.0,0.0,97,0.00,,,0.34,WUHU216DAVISVP2,2013-07-29 01:08:00,
2013-07-28 21:13:00,75.5,74.6,30.03,WSW,240,0.0,0.0,97,0.00,,,0.34,WUHU216DAVISVP2,2013-07-29 01:13:00,
2013-07-28 21:19:00,75.5,74.6,30.03,WSW,240,0.0,0.0,97,0.00,,,0.34,WUHU216DAVISVP2,2013-07-29 01:19:00,
2013-07-28 21:24:00,75.5,74.6,30.03,WSW,240,0.0,0.0,97,0.00,,,0.34,WUHU216DAVISVP2,2013-07-29 01:24:00,
2013-07-28 21:29:00,75.5,74.6,30.03,WSW,240,0.0,0.0,97,0.00,,,0.34,WUHU216DAVISVP2,2013-07-29 01:29:00,
2013-07-28 21:34:00,75.5,74.6,30.02,WSW,240,0.0,0.0,97,0.00,,,0.34,WUHU216DAVISVP2,2013-07-29 01:34:00,
2013-07-28 21:39:00,75.4,74.5,30.02,WSW,240,0.0,0.0,97,0.00,,,0.34,WUHU216DAVISVP2,2013-07-29 01:39:00,
2013-07-28 21:44:00,75.3,74.4,30.02,WSW,240,0.0,0.0,97,0.00,,,0.34,WUHU216DAVISVP2,2013-07-29 01:44:00,
2013-07-28 21:49:00,75.3,74.4,30.03,WSW,240,0.0,0.0,97,0.00,,,0.34,WUHU216DAVISVP2,2013-07-29 01:49:00,
2013-07-28 21:54:00,75.3,74.7,30.03,WSW,240,0.0,0.0,98,0.00,,,0.34,WUHU216DAVISVP2,2013-07-29 01:54:00,
2013-07-28 21:59:00,75.3,74.7,30.03,WSW,240,0.0,0.0,98,0.00,,,0.34,WUHU216DAVISVP2,2013-07-29 01:59:00,
2013-07-28 22:04:00,75.3,74.7,30.04,WSW,240,0.0,0.0,98,0.00,,,0.34,WUHU216DAVISVP2,2013-07-29 02:04:00,
2013-07-28 22:09:00,75.3,74.7,30.04,WSW,240,0.0,0.0,98,0.00,,,0.34,WUHU216DAVISVP2,2013-07-29 02:09:00,
2013-07-28 22:14:00,75.3,74.7,30.04,WSW,240,0.0,0.0,98,0.00,,,0.34,WUHU216DAVISVP2,2013-07-29 02:14:00,
2013-07-28 22:20:00,75.2,74.6,30.04,WSW,240,0.0,0.0,98,0.00,,,0.34,WUHU216DAVISVP2,2013-07-29 02:20:00,
2013-07-28 22:25:00,75.2,74.6,30.03,WSW,240,0.0,0.0,98,0.00,,,0.34,WUHU216DAVISVP2,2013-07-29 02:25:00,
2013-07-28 22:30:00,75.1,74.5,30.04,WSW,240,0.0,0.0,98,0.00,,,0.34,WUHU216DAVISVP2,2013-07-29 02:30:00,
2013-07-28 22:35:00,74.9,74.3,30.04,WSW,240,0.0,0.0,98,0.00,,,0.34,WUHU216DAVISVP2,2013-07-29 02:35:00,
2013-07-28 22:40:00,74.9,74.3,30.04,WSW,240,0.0,0.0,98,0.00,,,0.34,WUHU216DAVISVP2,2013-07-29 02:40:00,
2013-07-28 22:45:00,74.9,74.3,30.04,WSW,240,0.0,0.0,98,0.00,,,0.34,WUHU216DAVISVP2,2013-07-29 02:45:00,
2013-07-28 22:50:00,74.8,74.2,30.04,WSW,240,0.0,0.0,98,0.00,,,0.34,WUHU216DAVISVP2,2013-07-29 02:50:00,
2013-07-28 22:56:00,74.7,74.1,30.04,WSW,240,0.0,0.0,98,0.00,,,0.34,WUHU216DAVISVP2,2013-07-29 02:56:00,
2013-07-28 23:01:00,74.7,74.1,30.04,WSW,240,0.0,0.0,98,0.00,,,0.34,WUHU216DAVISVP2,2013-07-29 03:01:00,
2013-07-28 23:06:00,74.6,74.0,30.04,WSW,240,0.0,0.0,98,0.00,,,0.34,WUHU216DAVISVP2,2013-07-29 03:06:00,
2013-07-28 23:11:00,74.4,73.8,30.04,WSW,240,0.0,0.0,98,0.00,,,0.34,WUHU216DAVISVP2,2013-07-29 03:11:00,
2013-07-28 23:16:00,74.4,73.8,30.04,WSW,240,0.0,0.0,98,0.00,,,0.34,WUHU216DAVISVP2,2013-07-29 03:16:00,
2013-07-28 23:22:00,74.3,73.7,30.04,WSW,240,0.0,0.0,98,0.00,,,0.34,WUHU216DAVISVP2,2013-07-29 03:22:00,
2013-07-28 23:27:00,74.3,73.7,30.04,WSW,240,0.0,0.0,98,0.00,,,0.34,WUHU216DAVISVP2,2013-07-29 03:27:00,
2013-07-28 23:32:00,74.3,73.7,30.04,WSW,240,0.0,0.0,98,0.00,,,0.34,WUHU216DAVISVP2,2013-07-29 03:32:00,
2013-07-28 23:37:00,74.2,73.6,30.05,WSW,240,0.0,0.0,98,0.00,,,0.34,WUHU216DAVISVP2,2013-07-29 03:37:00,
2013-07-28 23:43:00,74.2,73.6,30.05,WSW,240,0.0,0.0,98,0.00,,,0.34,WUHU216DAVISVP2,2013-07-29 03:43:00,
2013-07-28 23:48:00,74.1,73.5,30.05,WSW,239,0.0,0.0,98,0.00,,,0.34,WUHU216DAVISVP2,2013-07-29 03:48:00,
2013-07-28 23:54:00,74.0,73.4,30.04,WSW,239,0.0,0.0,98,0.00,,,0.34,WUHU216DAVISVP2,2013-07-29 03:54:00,
2013-07-28 23:59:00,74.0,73.4,30.05,WSW,239,0.0,0.0,98,0.00,,,0.00,WUHU216DAVISVP2,2013-07-29 03:59:00,